Theta_e
304 304 302 301 301 301 301 300 301 302 302 302 302 303 303 303 304 307 310 313 313 316 316 315 316 317 315 314 318 315 316 314 315 317 314 314 314 314 322 319 328 327 326 326 326 330 328 326 330 332 326 324 326 327
303 304 303 301 301 300 301 300 300 302 301 302 302 302 303 303 303 308 311 312 313 312 313 314 314 316 316 315 314 311 315 313 314 316 316 315 318 319 321 326 325 325 325 324 325 324 320 323 327 325 323 325 326 328
303 304 304 302 302 302 301 300 301 301 301 301 302 302 303 303 303 307 311 312 313 314 315 314 313 314 315 316 317 315 311 313 313 311 313 315 319 319 324 323 323 320 320 325 326 322 324 323 323 325 327 326 327 327
303 303 304 303 302 302 302 301 300 301 301 302 302 302 302 302 302 306 309 311 312 314 318 312 312 313 314 314 314 316 315 310 308 308 312 313 317 314 316 315 316 315 321 323 323 322 322 323 323 327 329 328 328 328
303 303 304 303 302 301 301 301 301 301 301 301 301 302 302 302 303 307 310 311 313 314 316 314 312 314 313 313 313 314 314 311 310 313 312 314 311 313 310 310 312 313 317 323 322 319 321 321 322 327 327 328 327 327
303 303 303 303 301 301 301 301 301 301 302 301 302 303 302 302 304 311 311 311 312 312 315 317 309 309 311 311 310 309 312 307 309 311 311 310 310 313 314 315 313 311 314 315 319 324 318 321 326 326 326 326 328 328
303 303 303 303 301 301 301 301 301 302 302 302 302 303 302 303 306 311 311 311 312 312 315 314 310 308 311 310 307 308 309 309 309 310 311 312 313 312 312 316 313 313 323 323 322 321 322 322 323 324 325 326 325 324
303 303 303 301 300 301 301 301 301 301 301 302 303 302 302 304 309 310 311 313 313 313 314 317 312 310 311 310 312 308 309 307 308 310 310 312 310 310 315 313 312 321 323 323 322 321 321 319 323 324 323 324 326 325
303 303 302 301 301 301 301 301 301 301 302 303 302 302 306 309 310 311 312 312 313 312 316 312 311 314 311 308 309 310 308 312 307 311 310 311 312 315 314 314 318 321 322 324 323 323 323 324 324 322 322 323 323 322
303 303 302 301 301 301 301 301 301 302 303 302 302 308 310 311 311 312 312 312 311 311 311 312 306 312 313 313 312 311 310 312 314 312 309 312 312 312 315 316 315 317 320 321 324 324 324 324 324 323 322 321 321 322
303 302 303 301 301 301 301 301 302 303 302 304 309 310 310 311 312 309 314 314 313 311 307 308 309 311 309 317 316 313 318 319 322 319 319 318 320 318 316 319 320 320 321 324 324 324 322 320 320 319 319 322 324 323
302 302 302 302 302 302 302 302 303 303 306 309 310 311 311 311 313 312 314 313 312 314 311 311 311 307 309 314 320 319 320 319 322 318 322 322 318 318 318 324 323 322 323 326 325 323 323 323 323 321 320 322 323 323
302 302 302 302 302 302 302 303 302 302 305 309 311 312 313 313 318 316 316 318 314 314 315 311 312 309 311 317 322 322 325 324 320 323 325 321 318 320 322 322 323 321 322 323 324 323 323 323 323 324 321 323 322 321
302 302 302 302 302 302 303 303 302 303 308 311 311 314 314 314 314 312 312 312 313 314 313 310 310 313 318 319 320 323 322 322 325 325 324 319 321 321 319 318 317 317 317 316 316 317 317 318 319 320 322 322 322 322
302 302 302 302 303 303 302 303 305 307 308 311 313 314 313 311 310 310 308 308 311 311 312 314 314 315 316 316 311 320 325 326 325 327 325 323 321 317 317 317 316 316 315 315 315 315 316 317 318 318 320 320 323 323
302 302 303 303 302 302 303 306 307 306 309 311 313 316 315 313 312 310 309 311 310 310 313 316 319 319 318 316 323 323 325 327 327 323 319 316 316 315 315 315 315 315 315 315 315 316 316 317 317 317 318 318 318 319
303 303 303 302 302 304 306 307 306 308 309 309 315 313 314 313 313 312 310 313 310 314 320 320 322 323 319 322 323 317 326 324 321 318 313 311 314 313 313 314 315 315 314 315 314 314 316 316 316 316 315 315 317 318
303 302 302 303 305 306 307 307 308 310 311 312 314 313 311 311 311 311 312 312 314 316 318 320 318 320 322 321 320 316 318 316 312 312 310 311 311 312 314 313 314 314 314 315 315 317 317 317 315 315 315 316 317 317
302 303 305 306 306 307 307 307 307 312 313 312 311 310 308 309 310 311 312 310 311 315 318 319 319 318 317 315 315 316 315 311 310 308 309 310 312 312 313 313 313 314 314 315 316 316 317 317 315 315 316 317 318 317
306 305 306 307 308 309 309 309 308 310 314 311 308 308 308 309 308 314 315 312 311 312 313 312 313 313 312 312 312 311 307 305 305 311 313 311 312 312 311 311 311 312 312 312 311 310 311 312 315 315 316 316 317 317
307 307 307 308 309 309 310 309 309 310 309 309 307 309 313 313 316 315 314 313 315 317 319 314 313 309 308 309 308 308 309 308 310 312 314 314 312 311 311 311 310 309 310 309 308 306 306 306 307 312 313 315 314 313
307 308 308 308 307 309 307 307 307 306 309 308 308 310 310 311 312 311 308 314 318 316 315 316 312 311 314 313 315 315 314 314 314 314 314 314 312 314 311 311 309 307 306 305 304 304 305 306 310 314 314 310 307 305
308 307 307 308 309 305 305 307 309 307 309 310 311 313 311 311 311 309 318 317 316 313 311 311 313 316 316 316 314 313 314 315 315 313 314 314 311 310 308 308 308 307 306 305 304 305 304 305 306 307 307 305 303 301
307 306 304 304 305 306 307 308 307 311 310 311 312 313 310 311 311 316 318 317 314 313 313 314 314 314 312 311 309 311 312 312 312 311 312 312 309 308 306 306 306 305 304 305 305 304 304 303 303 303 302 302 301 301
302 305 305 302 308 309 311 311 310 311 311 310 311 310 309 308 314 316 317 316 314 314 313 313 313 310 310 308 305 305 310 313 310 307 307 309 307 305 305 305 305 304 305 305 304 303 302 302 301 301 301 301 300 299
304 306 304 307 308 310 310 312 311 310 310 310 310 310 310 310 314 316 315 314 313 311 311 311 312 307 302 301 301 301 304 307 305 303 303 304 304 304 303 302 302 304 305 305 304 303 302 301 300 299 299 298 299 299
304 305 303 300 303 305 306 305 305 306 309 312 311 312 311 314 316 315 312 312 310 310 309 308 304 302 301 302 303 304 305 304 304 303 303 303 304 304 304 303 303 304 304 303 302 301 300 300 299 299 298 297 298 298
302 302 306 303 305 303 307 305 308 309 308 305 307 312 315 315 315 311 310 311 310 304 304 304 304 304 303 303 303 303 303 303 303 303 302 302 303 303 303 303 303 302 302 301 300 300 299 299 300 299 298 298 298 298
302 300 301 305 306 306 307 309 308 306 305 306 308 308 309 308 306 307 305 309 305 305 304 304 303 304 303 303 302 301 301 301 301 300 300 299 299 300 301 302 302 302 301 300 300 300 300 299 299 299 298 298 298 298
302 300 305 308 310 311 309 306 308 306 305 304 303 303 303 304 305 306 306 306 306 305 305 305 304 304 303 302 301 300 300 300 301 300 299 299 299 299 300 300 300 301 301 301 300 299 298 298 298 298 298 298 297 297
302 304 309 310 311 310 310 308 307 305 303 304 303 306 305 303 306 307 308 307 306 306 306 305 305 305 304 303 302 300 300 300 300 300 300 300 299 299 299 299 299 300 301 301 300 299 298 298 298 297 297 297 296 296
307 311 312 313 314 312 310 311 310 310 310 310 310 309 308 306 307 306 308 308 308 306 306 305 306 306 305 304 303 302 302 301 301 301 301 301 301 300 300 299 299 299 299 300 299 299 299 297 297 296 296 296 296 295
312 311 311 311 311 312 310 311 312 312 311 311 311 310 308 307 310 309 308 308 308 307 306 306 306 305 305 304 303 302 302 302 302 302 302 301 301 301 301 300 299 298 298 298 298 298 298 298 298 298 297 296 296 295
Wind_Speed
26 24 21 20 20 18 18 16 16 14 14 13 12 12 11 11 7 9 7 12 7 2 4 5 3 3 1 2 3 3 4 2 3 2 2 2 3 4 1 4 4 4 3 3 2 1 5 5 2 4 6 3 3 4
26 24 22 18 18 18 16 16 17 15 14 14 13 11 11 12 11 7 5 9 10 4 4 9 18 20 15 7 3 2 3 2 3 3 1 1 1 0 2 3 1 2 5 3 7 5 6 5 7 6 2 4 5 4
25 24 23 21 19 17 19 17 15 15 15 14 13 11 11 13 12 8 7 7 5 2 5 8 10 18 18 29 26 4 3 5 3 4 4 2 3 3 2 5 2 2 3 3 1 6 6 8 6 6 4 7 5 5
22 23 23 21 20 19 18 17 17 17 16 14 13 12 12 12 13 10 10 12 7 4 3 6 7 10 8 12 26 32 15 1 1 1 2 2 2 3 3 3 3 5 4 3 5 8 6 7 5 3 4 4 4 6
21 19 19 20 18 18 17 16 15 16 14 14 13 13 12 13 11 12 16 18 12 3 3 4 15 32 17 23 25 27 21 6 1 2 1 3 2 2 1 1 4 4 6 4 5 9 5 7 3 1 4 5 6 5
19 20 19 18 17 17 16 15 15 15 14 13 13 12 12 12 8 5 2 18 23 15 3 3 5 5 6 8 18 16 14 3 4 4 4 3 4 4 2 4 6 6 4 6 5 3 4 7 6 2 3 5 7 5
19 17 18 17 16 15 15 15 13 13 12 13 13 11 11 11 11 6 2 1 9 18 2 4 5 4 4 3 3 3 8 3 4 3 3 4 3 4 2 7 7 7 7 2 2 3 5 2 4 4 5 6 4 2
16 15 16 16 15 14 13 12 12 12 12 11 10 10 12 10 11 13 17 4 5 5 3 2 4 5 1 1 2 2 4 2 2 3 2 3 1 2 4 9 4 5 6 6 4 4 7 7 5 5 4 4 5 6
16 15 16 14 13 14 13 11 11 11 10 9 8 7 5 4 4 5 7 6 10 4 2 3 2 4 4 1 1 1 2 2 0 3 3 4 2 4 5 4 4 3 4 5 6 7 6 6 7 6 4 6 7 6
15 17 15 14 13 13 12 11 10 9 8 7 5 5 3 8 8 10 4 2 1 3 2 3 1 3 1 2 3 3 2 3 2 4 3 3 3 4 5 6 7 7 6 5 4 5 5 5 4 5 5 6 4 4
12 17 15 15 13 12 12 11 9 8 5 4 3 3 2 14 9 2 2 3 2 3 3 4 7 4 2 1 3 1 3 1 2 3 4 1 1 3 6 6 3 1 5 7 7 4 2 2 5 6 5 5 4 6
12 15 14 14 12 11 11 10 11 12 6 4 2 4 6 3 1 2 3 3 4 4 3 4 5 4 3 2 1 1 1 0 4 3 3 1 3 4 6 3 3 3 5 6 4 7 7 7 10 6 3 3 5 5
9 11 13 12 11 11 11 11 13 14 10 3 3 4 3 2 5 4 5 3 3 3 4 3 3 4 0 1 2 1 3 3 2 2 2 2 2 4 5 3 3 5 6 6 6 9 10 9 14 9 5 5 6 9
10 12 11 11 10 11 10 11 11 14 7 2 1 3 4 3 4 5 4 4 5 3 3 2 2 3 1 2 3 4 4 2 2 2 2 2 2 4 5 4 4 6 7 7 7 8 10 10 10 13 9 6 7 8
13 12 10 10 10 10 10 8 11 1 3 2 2 3 5 4 3 4 4 2 3 2 2 2 1 2 3 4 3 2 3 4 3 2 2 1 3 3 3 3 5 6 5 6 7 7 12 13 11 12 17 13 8 7
14 12 8 12 13 13 10 10 6 1 2 2 3 3 1 0 3 1 2 3 2 2 2 1 2 5 3 1 3 4 3 3 2 2 2 2 3 3 4 5 5 7 8 9 12 13 13 12 10 10 11 16 15 10
8 4 14 14 13 11 12 3 2 2 2 3 3 2 2 3 4 2 1 2 0 2 2 3 3 3 2 4 3 4 2 0 2 3 2 2 4 4 5 6 8 10 9 12 13 15 12 12 14 16 10 18 18 18
5 17 15 15 16 15 3 3 0 4 6 4 3 2 2 2 1 2 2 2 1 1 2 2 3 5 3 3 2 1 1 3 2 2 2 2 4 7 9 6 10 10 8 9 10 11 13 13 12 9 13 17 17 20
19 18 18 17 5 3 2 4 4 2 4 2 4 1 1 3 2 2 2 2 1 2 4 3 5 3 2 1 2 2 2 2 1 1 1 5 10 10 10 10 9 10 9 8 9 10 10 9 11 13 16 15 12 14
21 20 10 3 3 2 1 2 2 1 3 2 1 4 3 2 4 5 7 5 3 3 5 4 3 1 2 2 3 2 1 1 2 2 3 3 8 8 9 10 10 10 11 12 13 16 15 13 14 13 13 15 14 16
12 6 3 2 2 2 1 2 3 1 3 3 3 3 2 3 7 6 5 5 5 3 3 3 3 3 4 2 1 2 1 2 1 1 2 1 3 8 10 12 12 16 11 11 11 14 18 14 17 13 13 13 13 18
4 6 3 6 3 2 1 3 2 2 2 2 3 3 4 3 4 4 3 5 3 2 2 2 3 3 3 4 5 10 7 9 9 9 8 6 3 2 5 9 12 9 12 14 16 13 16 17 15 16 16 16 19 22
5 5 2 3 3 3 4 1 3 4 3 3 3 4 4 4 4 2 3 3 2 3 3 2 3 6 8 11 15 15 12 11 7 9 7 7 10 11 11 11 11 12 10 15 14 15 17 20 20 20 20 20 22 23
3 1 1 0 1 3 3 5 3 3 4 4 4 4 5 4 5 4 3 3 2 4 5 8 8 3 7 10 4 6 7 3 6 7 6 6 6 6 6 7 10 10 9 8 12 17 20 19 19 20 19 18 17 15
4 6 4 5 3 4 6 5 5 5 4 5 4 4 4 3 3 3 2 3 4 5 5 9 7 5 3 1 3 8 7 4 4 3 10 2 6 6 7 8 9 11 8 8 12 13 14 15 16 16 16 14 13 14
5 4 3 4 4 4 3 3 4 3 3 3 3 1 3 3 4 3 2 3 3 3 3 3 2 3 4 7 3 6 10 5 11 11 8 7 5 6 4 3 4 9 10 7 7 9 10 12 13 13 14 14 13 11
4 4 3 1 0 1 3 3 3 4 3 3 1 1 2 3 2 2 3 2 1 5 6 12 16 15 7 8 12 13 14 11 14 14 12 11 10 8 7 7 6 6 8 9 10 11 10 9 10 11 13 15 13 12
1 2 3 5 3 2 3 2 2 2 2 1 2 2 2 2 2 2 1 2 5 14 17 15 14 15 16 15 14 12 8 3 6 7 14 18 16 12 11 8 7 6 8 9 10 10 11 9 6 6 8 10 10 11
2 2 2 5 3 4 3 2 1 2 3 2 3 2 1 1 3 3 4 13 17 15 14 12 10 10 11 11 13 15 15 12 10 6 6 3 7 14 11 5 3 2 4 4 5 6 5 5 7 6 7 9 10 10
2 0 2 2 3 4 3 1 1 1 1 2 3 2 3 5 8 7 9 10 7 6 4 4 6 1 3 5 8 13 13 12 11 8 3 2 3 7 9 10 8 4 1 2 1 3 5 5 4 7 11 12 11 9
1 1 2 3 4 2 1 2 4 5 3 4 4 6 2 1 4 11 9 5 6 6 6 4 2 1 3 2 2 4 5 7 8 8 8 7 8 10 11 10 9 9 6 3 6 3 3 5 8 10 9 10 8 7
1 3 4 5 3 2 2 2 2 2 1 2 2 1 2 3 2 3 3 5 5 4 3 4 5 5 4 3 5 5 7 6 5 5 5 5 6 6 7 11 11 10 10 4 3 1 4 6 7 9 9 10 9 4
3 3 4 3 4 3 2 3 2 2 1 2 2 3 2 4 2 3 1 1 2 3 4 3 3 3 2 2 3 3 2 1 5 6 7 7 7 6 5 3 7 9 9 7 6 6 6 6 7 8 9 10 10 5
Wind_Direction
263 258 256 263 262 267 267 264 263 267 274 281 283 287 291 295 295 250 260 247 212 270 281 216 232 203 92 144 154 280 352 328 359 47 149 227 190 230 183 219 196 192 173 213 119 199 296 164 111 188 221 256 254 251
259 255 252 255 261 262 263 263 260 260 268 273 276 280 286 291 304 249 264 250 259 226 277 279 278 256 255 215 160 231 229 220 230 94 203 129 286 331 168 250 48 264 185 198 174 222 229 218 240 247 163 237 265 254
256 255 250 249 251 253 253 258 259 257 262 267 269 271 281 284 296 244 264 229 206 253 248 251 261 267 258 244 231 172 267 220 248 185 169 166 247 134 212 242 223 248 166 201 83 273 243 258 254 246 222 233 287 280
254 251 248 243 251 251 249 254 256 253 258 260 266 269 276 278 290 250 255 233 226 267 266 274 278 265 266 257 224 218 234 139 67 104 123 140 196 170 233 244 185 217 148 224 251 281 284 275 238 317 329 317 290 287
248 246 241 240 246 246 244 249 248 248 252 260 267 267 274 278 274 260 241 230 223 224 296 287 300 290 270 241 216 213 215 200 130 340 102 223 222 147 221 40 240 193 209 181 237 245 202 262 299 245 269 283 274 290
243 241 239 234 246 240 239 246 247 251 245 257 266 260 267 280 256 247 246 241 235 228 264 299 282 278 272 215 206 204 198 134 167 173 212 227 237 150 223 243 262 220 208 199 253 355 233 267 270 237 253 253 261 269
242 235 230 231 235 236 239 241 244 246 247 255 262 259 264 263 240 223 228 3 203 194 241 284 293 270 275 170 121 111 149 178 154 192 204 185 232 152 166 253 253 267 269 282 243 337 286 251 292 289 248 274 269 292
234 225 227 226 226 226 230 236 238 239 249 256 253 256 272 253 233 241 240 218 201 199 233 270 274 330 350 228 130 167 140 169 203 191 100 164 61 104 253 246 280 251 277 290 262 226 237 272 283 263 263 295 261 254
226 218 222 222 223 223 230 233 231 236 249 249 249 260 242 237 177 215 206 216 215 238 226 174 229 268 345 330 162 85 146 121 323 195 222 124 148 222 243 278 290 269 259 262 305 287 273 239 255 253 257 262 253 270
230 214 219 219 215 221 222 221 223 238 235 234 255 205 192 195 171 155 146 167 169 208 257 236 158 269 19 7 337 83 36 182 181 236 116 153 235 254 252 265 258 272 280 287 275 358 332 316 308 293 262 261 276 277
212 210 215 208 212 216 215 215 219 210 203 227 192 205 175 160 164 156 190 212 174 253 213 229 193 202 264 176 241 206 179 152 198 235 156 185 286 276 310 304 291 322 293 299 294 50 341 240 286 302 327 330 305 280
199 202 203 204 211 209 208 211 200 194 207 203 176 149 144 177 154 147 218 176 197 227 206 186 206 188 257 169 142 6 179 180 236 136 114 98 252 264 296 315 311 267 290 286 324 348 333 333 326 312 311 311 310 328
183 187 193 197 197 202 212 203 203 215 246 245 203 192 155 167 195 207 188 198 213 208 200 176 192 165 117 162 59 7 347 231 81 26 92 220 277 297 289 317 5 360 2 11 355 344 330 320 335 327 291 294 293 301
190 178 180 183 194 202 198 191 207 229 245 221 175 190 211 188 232 199 197 199 216 205 175 152 126 142 142 112 140 191 210 155 100 66 49 272 282 303 321 344 13 345 342 334 330 329 320 326 322 334 343 335 304 297
162 166 172 181 181 176 174 188 196 193 16 265 248 211 213 242 258 230 233 273 237 159 135 97 0 106 180 242 207 122 138 78 52 45 92 66 300 311 313 330 324 316 323 319 334 324 317 327 325 323 344 358 15 352
148 142 160 165 164 162 153 144 146 326 300 286 255 275 306 89 307 301 219 241 200 130 147 150 125 154 198 256 76 13 34 52 63 343 333 316 319 302 308 340 357 6 11 347 333 327 331 344 346 350 10 10 9 13
126 128 158 158 154 144 142 106 74 53 32 272 247 246 232 235 239 251 225 278 132 117 65 27 55 13 317 51 43 4 41 71 326 298 287 277 291 348 29 27 16 13 9 5 7 14 11 18 23 24 8 355 5 5
109 143 150 150 141 133 61 63 220 215 231 243 273 265 236 236 236 272 301 340 94 87 82 81 116 42 64 99 305 241 332 19 13 5 20 16 35 46 50 37 23 25 25 29 25 22 17 9 13 8 3 8 10 11
142 143 145 137 135 131 165 217 195 191 226 265 280 329 344 288 260 204 180 270 157 122 93 31 56 48 86 121 181 256 248 215 201 347 347 41 54 56 52 40 29 25 22 20 19 13 2 13 19 19 16 13 10 1
128 136 136 115 254 279 265 303 167 83 311 314 2 19 63 10 325 14 33 19 26 56 41 40 25 318 156 221 191 211 234 125 131 78 32 18 37 58 45 37 24 17 22 30 28 23 14 8 17 17 26 26 17 357
119 118 137 349 294 336 294 341 330 286 329 19 337 50 42 11 41 32 25 360 49 39 44 16 335 302 304 323 101 112 33 142 126 121 144 81 43 77 50 36 45 43 33 19 11 1 9 1 357 7 18 44 61 58
103 47 25 9 342 330 286 244 188 281 57 293 27 28 44 24 3 13 329 39 42 14 11 336 318 328 26 32 38 73 86 88 85 88 94 96 52 22 23 23 35 25 27 19 14 7 9 19 39 57 70 71 71 62
58 24 5 346 331 31 271 18 34 9 70 19 19 36 20 359 342 316 65 35 23 345 316 313 340 40 67 66 69 60 62 79 70 75 71 68 72 73 64 47 37 32 13 9 24 35 44 54 60 75 79 72 67 60
317 15 333 247 214 310 348 18 34 48 41 35 41 43 5 353 334 42 52 3 301 324 19 19 31 52 43 43 33 22 28 78 88 70 61 122 94 56 53 41 36 36 25 34 55 55 56 63 69 70 70 69 66 64
51 340 44 346 4 31 24 21 16 50 57 29 57 22 345 354 60 42 21 308 2 11 15 9 35 51 81 44 21 22 28 21 33 50 23 93 121 94 64 61 48 37 29 57 52 58 57 59 61 61 56 55 57 56
63 360 55 355 358 54 5 46 40 50 64 57 49 38 0 38 45 33 316 315 325 316 351 5 45 67 37 26 354 355 348 40 117 93 53 58 73 90 76 44 13 21 40 54 47 41 41 47 52 51 48 45 48 54
54 353 335 351 215 75 67 54 54 72 76 88 108 77 69 62 80 260 292 321 336 350 97 110 103 94 88 60 62 64 79 88 84 87 79 70 68 69 77 87 76 59 61 55 47 44 44 48 52 42 41 47 51 53
150 9 57 324 38 22 99 70 54 74 140 175 95 63 96 133 183 262 259 16 114 119 109 104 95 91 81 68 56 52 52 126 150 94 85 72 71 71 75 83 91 84 78 61 65 65 59 58 64 44 35 31 28 25
32 335 22 26 31 42 43 75 75 255 171 141 116 109 97 326 321 342 44 134 142 131 119 113 104 100 87 70 55 45 38 40 82 80 67 32 15 28 42 63 72 96 85 80 63 43 32 34 39 41 24 12 6 9
348 29 82 44 58 43 321 138 85 249 42 77 105 85 36 24 32 81 115 139 140 130 148 165 160 151 93 68 53 51 51 58 67 82 97 64 16 20 26 29 26 11 344 237 132 81 51 77 55 22 15 17 23 28
135 3 65 50 73 26 111 104 54 50 42 46 16 90 110 284 49 50 55 94 121 112 108 97 90 283 256 213 89 76 62 70 76 75 76 72 58 41 28 18 15 9 342 238 169 109 58 16 2 355 359 5 5 6
36 49 74 55 56 41 78 71 65 73 48 48 31 90 71 44 28 318 35 73 90 105 80 59 33 10 9 98 134 113 109 105 79 55 32 13 7 8 17 26 26 31 41 80 158 29 350 350 358 1 1 357 353 349
38 52 53 57 28 42 344 103 104 127 153 188 184 160 151 158 184 238 195 61 55 168 154 101 58 42 74 163 161 135 134 44 1 349 346 340 328 328 335 353 22 29 28 24 16 3 348 335 328 340 345 346 345 342